TimeCDT,TemperatureF,Dew PointF,Humidity,Sea Level PressureIn,VisibilityMPH,Wind Direction,Wind SpeedMPH,Gust SpeedMPH,PrecipitationIn,Events,Conditions,WindDirDegrees,DateUTC
12:15 AM,35.4,34.0,94,30.40,10.0,Calm,Calm,-,N/A,,Clear,0,2013-10-14 05:15:00
12:35 AM,35.2,33.8,94,30.41,10.0,Calm,Calm,-,N/A,,Clear,0,2013-10-14 05:35:00
12:55 AM,35.8,34.3,94,30.40,10.0,Calm,Calm,-,N/A,,Clear,0,2013-10-14 05:55:00
1:15 AM,35.6,33.4,92,30.40,10.0,Calm,Calm,-,N/A,,Clear,0,2013-10-14 06:15:00
1:35 AM,34.9,32.7,92,30.40,7.0,Calm,Calm,-,N/A,,Clear,0,2013-10-14 06:35:00
1:55 AM,34.9,32.9,92,30.40,10.0,Calm,Calm,-,N/A,,Clear,0,2013-10-14 06:55:00
2:15 AM,35.4,33.4,92,30.41,10.0,Calm,Calm,-,N/A,,Clear,0,2013-10-14 07:15:00
2:35 AM,33.4,32.0,94,30.41,10.0,Calm,Calm,-,N/A,,Clear,0,2013-10-14 07:35:00
2:55 AM,33.1,32.0,96,30.41,10.0,Calm,Calm,-,N/A,,Clear,0,2013-10-14 07:55:00
3:15 AM,32.7,32.0,97,30.41,10.0,Calm,Calm,-,N/A,,Clear,0,2013-10-14 08:15:00
3:35 AM,33.4,32.5,96,30.41,7.0,Calm,Calm,-,N/A,,Clear,0,2013-10-14 08:35:00
3:55 AM,33.4,32.2,95,30.41,10.0,Calm,Calm,-,N/A,,Clear,0,2013-10-14 08:55:00
4:15 AM,33.8,32.4,94,30.41,10.0,Calm,Calm,-,N/A,,Clear,0,2013-10-14 09:15:00
4:35 AM,35.6,34.2,94,30.41,10.0,Calm,Calm,-,N/A,,Clear,0,2013-10-14 09:35:00
4:55 AM,34.7,33.1,94,30.40,10.0,Calm,Calm,-,N/A,,Clear,0,2013-10-14 09:55:00
5:15 AM,33.1,32.0,96,30.41,10.0,Calm,Calm,-,N/A,,Clear,0,2013-10-14 10:15:00
5:35 AM,32.4,32.0,99,30.40,10.0,Calm,Calm,-,N/A,,Clear,0,2013-10-14 10:35:00
5:55 AM,32.9,32.2,97,30.40,10.0,Calm,Calm,-,N/A,,Clear,0,2013-10-14 10:55:00
6:15 AM,34.3,33.3,96,30.40,10.0,Calm,Calm,-,N/A,,Clear,0,2013-10-14 11:15:00
6:35 AM,34.0,32.9,96,30.39,10.0,ENE,5.8,-,N/A,,Clear,60,2013-10-14 11:35:00
6:55 AM,34.5,33.4,96,30.39,10.0,ENE,3.5,-,N/A,,Clear,60,2013-10-14 11:55:00
7:15 AM,34.5,33.3,95,30.40,10.0,Calm,Calm,-,N/A,,Clear,0,2013-10-14 12:15:00
7:35 AM,34.7,33.6,96,30.39,10.0,Calm,Calm,-,N/A,,Clear,0,2013-10-14 12:35:00
7:55 AM,36.3,34.9,95,30.39,10.0,Calm,Calm,-,N/A,,Clear,0,2013-10-14 12:55:00
8:15 AM,39.2,37.4,93,30.39,10.0,Calm,Calm,-,N/A,,Clear,0,2013-10-14 13:15:00
8:35 AM,43.7,40.1,87,30.39,10.0,ENE,4.6,-,N/A,,Clear,60,2013-10-14 13:35:00
8:55 AM,47.7,42.1,81,30.38,10.0,Calm,Calm,-,N/A,,Clear,0,2013-10-14 13:55:00
9:15 AM,51.4,43.0,73,30.38,10.0,ENE,6.9,-,N/A,,Clear,60,2013-10-14 14:15:00
9:35 AM,55.0,43.3,65,30.37,10.0,East,8.1,-,N/A,,Clear,90,2013-10-14 14:35:00
9:55 AM,55.8,42.3,60,30.38,10.0,ESE,8.1,-,N/A,,Clear,120,2013-10-14 14:55:00
10:15 AM,56.3,43.0,61,30.38,10.0,SE,8.1,-,N/A,,Scattered Clouds,140,2013-10-14 15:15:00
10:35 AM,57.0,43.5,61,30.38,10.0,SSE,8.1,-,N/A,,Mostly Cloudy,150,2013-10-14 15:35:00
10:55 AM,57.2,43.0,59,30.37,10.0,ESE,8.1,-,N/A,,Scattered Clouds,120,2013-10-14 15:55:00
11:15 AM,59.2,42.8,55,30.37,10.0,SSE,11.5,-,N/A,,Scattered Clouds,160,2013-10-14 16:15:00
11:35 AM,59.0,42.3,54,30.36,10.0,ESE,5.8,16.1,N/A,,Scattered Clouds,110,2013-10-14 16:35:00
11:55 AM,60.1,42.1,51,30.35,10.0,ESE,9.2,-,N/A,,Mostly Cloudy,120,2013-10-14 16:55:00
12:15 PM,60.8,42.1,50,30.34,10.0,ESE,6.9,-,N/A,,Scattered Clouds,120,2013-10-14 17:15:00
12:35 PM,61.7,41.9,48,30.32,10.0,East,10.4,-,N/A,,Clear,90,2013-10-14 17:35:00
12:55 PM,62.2,41.7,47,30.31,10.0,East,6.9,-,N/A,,Clear,100,2013-10-14 17:55:00
1:15 PM,62.8,41.0,45,30.30,10.0,East,6.9,-,N/A,,Clear,90,2013-10-14 18:15:00
1:35 PM,63.9,41.9,45,30.28,10.0,East,10.4,-,N/A,,Clear,90,2013-10-14 18:35:00
1:55 PM,63.9,39.7,41,30.27,10.0,East,10.4,16.1,N/A,,Clear,90,2013-10-14 18:55:00
2:15 PM,64.4,40.3,41,30.26,10.0,ESE,10.4,-,N/A,,Clear,110,2013-10-14 19:15:00
2:35 PM,65.1,38.8,38,30.25,10.0,East,10.4,16.1,N/A,,Clear,100,2013-10-14 19:35:00
2:55 PM,64.8,38.8,38,30.24,10.0,East,5.8,-,N/A,,Clear,90,2013-10-14 19:55:00
3:15 PM,65.1,39.2,39,30.24,10.0,ESE,10.4,17.3,N/A,,Clear,110,2013-10-14 20:15:00
3:35 PM,64.4,38.5,38,30.23,10.0,ESE,9.2,-,N/A,,Clear,120,2013-10-14 20:35:00
3:55 PM,64.0,38.7,39,30.22,10.0,ESE,9.2,-,N/A,,Clear,120,2013-10-14 20:55:00
4:15 PM,63.9,39.4,41,30.22,10.0,ESE,8.1,-,N/A,,Clear,110,2013-10-14 21:15:00
4:35 PM,63.5,39.4,41,30.21,10.0,East,9.2,16.1,N/A,,Clear,100,2013-10-14 21:35:00
4:55 PM,63.0,39.2,42,30.20,10.0,East,10.4,-,N/A,,Clear,100,2013-10-14 21:55:00
5:15 PM,62.1,40.1,44,30.20,10.0,East,8.1,-,N/A,,Clear,100,2013-10-14 22:15:00
5:35 PM,60.8,40.3,47,30.20,10.0,East,9.2,-,N/A,,Clear,100,2013-10-14 22:35:00
5:55 PM,58.5,40.6,52,30.20,10.0,East,8.1,-,N/A,,Clear,90,2013-10-14 22:55:00
6:15 PM,55.9,41.0,57,30.21,10.0,East,5.8,-,N/A,,Clear,80,2013-10-14 23:15:00
6:35 PM,54.1,41.2,62,30.21,10.0,East,6.9,-,N/A,,Clear,80,2013-10-14 23:35:00
6:55 PM,53.6,41.4,63,30.20,10.0,East,8.1,-,N/A,,Clear,80,2013-10-14 23:55:00
7:15 PM,52.7,41.7,66,30.18,10.0,East,9.2,-,N/A,,Clear,80,2013-10-15 00:15:00
7:35 PM,52.0,42.3,69,30.18,10.0,East,9.2,-,N/A,,Clear,80,2013-10-15 00:35:00
7:55 PM,50.5,42.4,74,30.18,10.0,East,8.1,-,N/A,,Clear,90,2013-10-15 00:55:00
8:15 PM,49.5,42.4,77,30.17,10.0,East,8.1,-,N/A,,Clear,90,2013-10-15 01:15:00
8:35 PM,49.3,42.8,78,30.17,10.0,East,9.2,-,N/A,,Clear,90,2013-10-15 01:35:00
8:55 PM,49.3,42.8,78,30.17,10.0,East,9.2,-,N/A,,Clear,90,2013-10-15 01:55:00
9:15 PM,49.1,43.2,80,30.16,10.0,East,10.4,-,N/A,,Clear,100,2013-10-15 02:15:00
9:35 PM,49.1,43.5,81,30.16,10.0,East,10.4,-,N/A,,Clear,100,2013-10-15 02:35:00
9:55 PM,49.3,43.9,82,30.15,10.0,East,9.2,-,N/A,,Clear,100,2013-10-15 02:55:00
10:15 PM,49.1,44.1,83,30.15,10.0,East,8.1,-,N/A,,Clear,100,2013-10-15 03:15:00
10:35 PM,48.6,44.1,84,30.14,10.0,ESE,6.9,-,N/A,,Clear,110,2013-10-15 03:35:00
10:55 PM,48.2,44.1,86,30.13,10.0,ESE,4.6,-,N/A,,Clear,110,2013-10-15 03:55:00
11:15 PM,48.9,44.6,85,30.12,10.0,ESE,6.9,-,N/A,,Clear,120,2013-10-15 04:15:00
11:35 PM,47.7,43.9,87,30.12,10.0,ESE,4.6,-,N/A,,Clear,110,2013-10-15 04:35:00
11:55 PM,49.8,45.0,83,30.11,10.0,SE,6.9,-,N/A,,Clear,130,2013-10-15 04:55:00